星链-5445 (STARLINK-5445 )

导读 | 豆包AI

STARLINK-5445是美国SpaceX公司星链(Starlink)项目的低轨通信卫星,于2022年12月17日发射升空,属于星链第二代星座中的V1.5型号,这类卫星重量约295公斤,采用紧凑平板设计,配备4个激光通信模块可实现星间互联。 作为全球最大低轨卫星星座的组成部分,该卫星可提升星链网络带宽与可靠性,降低对地面基站依赖,助力扩展网络覆盖范围,为偏远、海洋区域提供高速宽带互联网服务支撑。

基本信息
目录编号:
54790
目录名称:
STARLINK-5445
国际标识:
2022-175AJ
轨道中心:
EARTH
卫星名称:
星链-5445
卫星全名:
星链-5445 (STARLINK-5445 )
卫星状态:
在轨 (已飞行1184 天)
发射日期:
2022-12-17 UTC
国别 :
美国 (US)
星等 :
--
轨道信息
数据来源 国际轨道数据
星历时间: 2026-03-15T09:30:11+0800
11小时前
查看轨道信息
半长轴: 6917.907km
偏心率: 0.0001408
轨道倾角: 53.218°
近地点辐角 85.306°
升交点赤经 4.794°
平近点角 274.809°
近地点: 538.795km
远地点: 540.745km
周期: 95.438分钟
每日圈数: 15.088316
详细信息
固有亮度:
5
最大亮度:
2.5
卫星平台:
Starlink v1.5
覆盖范围:
全球
运营商:
太空探索技术公司
运营商所在国:
美国
制造商(研发单位):
太空探索技术公司
制造商所在国:
美国
使用方式:
暂无
卫星简介
星链(Starlink)计划是由太空探索技术公司(SpaceX)提出的一个巨型低轨卫星互联网星座项目,计划在2019年至2024年间在太空搭建由约1.2万颗卫星组成的“星链”网络,其中1584颗将部署在地球上空550千米处的近地轨道,并从2020年开始工作。该卫星仍在工作。
2D轨道图
3D轨道图
轨道高度分析图
轨道倾角分析图
轨道综合分析图
查看轨道综合分析图